Regional Weather Roundup
Issued by NWS Jackson, KY

Home | Current Version | Previous Version | Graphics & Text | Print | Product List | Glossary On
Versions: 1 2 3 4 5 6 7 8 9 10 11 12 13 14 15 16 17 18 19 20 21 22 23 24 25 26 27
000
ASUS43 KJKL 271310
RWRJKL

EAST KENTUCKY HOURLY WEATHER ROUNDUP
NATIONAL WEATHER SERVICE JACKSON KY
900 AM EDT MON MAR 27 2017

NOTE: "FAIR" INDICATES FEW OR NO CLOUDS BELOW 12,000 FEET WITH
NO SIGNIFICANT WEATHER AND/OR OBSTRUCTIONS TO VISIBILITY.

* THESE REPORTS ARE NOT UNDER NWS QUALITY CONTROL AND MAY NOT
  REPORT WEATHER SUCH AS PRECIPITATION AND FOG.

KYZ079-080-083-085-087-088-110-112-115-119-120-271400
...EASTERN KENTUCKY...

CITY           SKY/WX    TMP DP  RH WIND       PRES   REMARKS
JACKSON        CLOUDY    59  53  80 S3        30.03R
LONDON         PTSUNNY   54  51  90 CALM      30.02R
SOMERSET*      MOSUNNY   52  52 100 CALM      30.02S
MONTICELLO*    CLOUDY    62  56  80 E7        30.02S
WILLIAMSBURG*  MOSUNNY   57  55  94 SE6       30.03R
MIDDLESBORO*   MOSUNNY   50  50 100 CALM      30.07R
HARLAN APT*    CLOUDY    50  48  93 CALM      30.06R VSB 1/4
PIKE CO APT*     N/A     58  55  89 CALM      30.04R
BIG SANDY APT* SUNNY     59  56  90 CALM      30.03S
MOREHEAD APT*  SUNNY     55  54  94 CALM      30.03R
ASHLAND*       CLOUDY    54  52  94 CALM      30.00S VSB 1/4
$$

KYZ035-036-041-042-044-050-067-078-099-271400
...CENTRAL KENTUCKY...

CITY           SKY/WX    TMP DP  RH WIND       PRES   REMARKS
MT STERLING*   SUNNY     55  55 100 CALM      30.03R
FLEMING/MASON* SUNNY     56  53  90 CALM      30.02R
DANVILLE*      MOSUNNY   52  52 100 CALM      30.01S
LEXINGTON      PTSUNNY   57  52  83 SE6       30.00R
FRANKFORT      SUNNY     56  51  84 SE5       29.99R
LOUISVILLE     CLOUDY    55  49  80 CALM      29.98R
LEBANON*       PTSUNNY   57  54  88 CALM      29.98F
GLASGOW*       CLOUDY    55  55 100 E5        29.96F
BOWLING GREEN  LGT RAIN  54  52  93 CALM      29.96S FOG
$$

KYZ091>093-OHZ055-061-077-WVZ005-015-034-035-042-271400
...SOUTHERN OHIO/WEST VIRGINIA...

CITY           SKY/WX    TMP DP  RH WIND       PRES   REMARKS
COVINGTON      MOSUNNY   50  50 100 CALM      29.99S
COLUMBUS       CLOUDY    52  51  97 S5        30.00R FOG
DAYTON         MOSUNNY   52  49  89 S7        29.99R
WILMINGTON     SUNNY     50  50 100 CALM      30.00R FOG
HUNTINGTON     MOSUNNY   55  54  96 CALM      30.01S
CHARLESTON     MOSUNNY   55  54  96 CALM      30.02R
PINEVILLE*     MOSUNNY   51  49  92 MISG      30.11S
BECKLEY        CLOUDY    58  53  84 SW3       30.08R
BLUEFIELD      CLOUDY    56  50  80 SW6       30.10
LOGAN CO APT*    N/A     59  55  88 CALM      30.04R
$$

VAZ002-007-008-TNZ017-027-036-066-071-271400
...SOUTHWEST VIRGINIA/EAST TENNESSEE...

CITY           SKY/WX    TMP DP  RH WIND       PRES   REMARKS
WISE*          CLOUDY    57  52  82 CALM      30.10R
JONESVILLE*      N/A     54  54 100 CALM      30.09S
ABINGDON*      CLOUDY    58  57  96 CALM      30.09S
BRISTOL        CLOUDY    56  53  90 CALM      30.08R
MORRISTOWN*    PTSUNNY   57  55  94 CALM      30.06R
SEVIERVILLE*   SUNNY     54  52  94 CALM      30.06R
KNOXVILLE      PTSUNNY   58  53  84 CALM      30.05R
LAFOLLETTE*    SUNNY     54  52  94 CALM      30.08S
OAK RIDGE      PTSUNNY   58  52  80 CALM      30.07R
CROSSVILLE     PTSUNNY   59  55  87 S7        30.06R
NASHVILLE      CLOUDY    66  60  81 S14       29.97S
$$

...KEY TO REMARKS...
VSB - VISIBILITY IN MILES
WCI - WIND CHILL INDEX
HX  - HEAT INDEX

$$




USA.gov is the U.S. government's official web portal to all federal, state and local government web resources and services.